Location: De Greiden
(52.9496°N, 5.9137°E)
Time: 23:39:05
(UTC+00:00)

S3M - Pass Details

Date: 24 January 2021
Orbit: 949 x 1004 km, 83.0° (Epoch: 01 March)

Event Time Altitude Azimuth Distance (km) Brightness Sun altitude
Rises 18:00:43 0° 352° (N) 3,643 7.0 -16.9°
Reaches altitude 10° 18:03:26 10° 0° (N) 2,689 6.2 -17.3°
Maximum altitude 18:09:07 38° 68° (ENE) 1,418 4.4 -18.1°
Enters shadow 18:12:27 22° 122° (ESE) 1,953 5.1 -18.6°
